| time (UTC) | temp F | wind direction | speed knots | gust knots | rain 1hr in | rain 24hr in | rain mn in | humidity % | barometer mb |
| 20260506113805 | 43 | 293 | 1.7 | 6.1 | 0.00 | 0.03 | 0.00 | 69 | 1014.8 |
| 20260506113304 | 43 | 298 | 2.6 | 2.6 | 0.00 | 0.03 | 0.00 | 69 | 1014.8 |
| 20260506112804 | 43 | 296 | 0.9 | 2.6 | 0.00 | 0.03 | 0.00 | 69 | 1014.7 |
| 20260506112306 | 43 | 296 | 0.9 | 2.6 | 0.00 | 0.03 | 0.00 | 69 | 1014.8 |
| 20260506111803 | 43 | 296 | 1.7 | 2.6 | 0.00 | 0.03 | 0.00 | 69 | 1014.7 |
| 20260506110804 | 43 | 296 | 0.0 | 1.7 | 0.00 | 0.03 | 0.00 | 69 | 1014.6 |
| 20260506105804 | 43 | 308 | 0.9 | 6.1 | 0.00 | 0.03 | 0.00 | 69 | 1014.8 |
| 20260506105305 | 43 | 300 | 0.0 | 1.7 | 0.00 | 0.03 | 0.00 | 69 | 1014.8 |
| 20260506104804 | 43 | 298 | 0.9 | 1.7 | 0.00 | 0.03 | 0.00 | 69 | 1014.8 |
| 20260506104303 | 43 | 0 | 0.0 | 2.6 | 0.00 | 0.03 | 0.00 | 68 | 1014.7 |
| 20260506103804 | 43 | 303 | 1.7 | 2.6 | 0.00 | 0.03 | 0.00 | 68 | 1014.6 |
| 20260506103303 | 43 | 300 | 1.7 | 4.3 | 0.00 | 0.03 | 0.00 | 68 | 1014.5 |
| 20260506102804 | 43 | 305 | 1.7 | 4.3 | 0.00 | 0.03 | 0.00 | 68 | 1014.4 |
| 20260506102305 | 43 | 305 | 0.9 | 2.6 | 0.00 | 0.03 | 0.00 | 68 | 1014.5 |
| 20260506101803 | 43 | 328 | 0.9 | 5.2 | 0.00 | 0.03 | 0.00 | 67 | 1014.4 |
| 20260506101304 | 44 | 321 | 0.9 | 5.2 | 0.00 | 0.03 | 0.00 | 67 | 1014.4 |
| 20260506100804 | 44 | 320 | 1.7 | 2.6 | 0.00 | 0.03 | 0.00 | 67 | 1014.4 |
| 20260506100304 | 44 | 328 | 1.7 | 4.3 | 0.00 | 0.03 | 0.00 | 67 | 1014.4 |
| 20260506095804 | 44 | 329 | 0.9 | 4.3 | 0.00 | 0.03 | 0.00 | 67 | 1014.4 |
| 20260506095305 | 44 | 324 | 0.9 | 2.6 | 0.00 | 0.03 | 0.00 | 67 | 1014.3 |
| 20260506094304 | 44 | 324 | 0.0 | 1.7 | 0.00 | 0.03 | 0.00 | 67 | 1014.2 |
| 20260506093804 | 44 | 323 | 0.0 | 0.9 | 0.00 | 0.03 | 0.00 | 67 | 1014.2 |
| 20260506093304 | 44 | 325 | 0.0 | 0.9 | 0.00 | 0.03 | 0.00 | 67 | 1014.0 |
| 20260506092804 | 44 | 325 | 0.0 | 1.7 | 0.00 | 0.03 | 0.00 | 67 | 1014.0 |
| 20260506092306 | 44 | 325 | 0.9 | 2.6 | 0.00 | 0.03 | 0.00 | 67 | 1014.0 |
| 20260506091804 | 45 | 326 | 1.7 | 4.3 | 0.00 | 0.03 | 0.00 | 67 | 1013.9 |
| 20260506091304 | 45 | 332 | 1.7 | 2.6 | 0.00 | 0.03 | 0.00 | 67 | 1013.9 |
| 20260506090804 | 45 | 325 | 0.9 | 2.6 | 0.00 | 0.03 | 0.00 | 67 | 1013.8 |
| 20260506090304 | 45 | 325 | 0.9 | 2.6 | 0.00 | 0.03 | 0.00 | 67 | 1013.8 |
| 20260506085804 | 45 | 0 | 1.7 | 4.3 | 0.00 | 0.03 | 0.00 | 67 | 1014.1 |
| 20260506085305 | 45 | 340 | 1.7 | 4.3 | 0.00 | 0.03 | 0.00 | 67 | 1014.1 |
| 20260506084803 | 45 | 0 | 0.9 | 2.6 | 0.00 | 0.03 | 0.00 | 67 | 1014.0 |
| 20260506084303 | 45 | 350 | 0.9 | 2.6 | 0.00 | 0.03 | 0.00 | 67 | 1014.1 |
| 20260506083804 | 45 | 350 | 0.9 | 2.6 | 0.00 | 0.03 | 0.00 | 67 | 1014.0 |
| 20260506083304 | 46 | 355 | 0.9 | 1.7 | 0.00 | 0.03 | 0.00 | 67 | 1014.0 |
| 20260506082804 | 46 | 355 | 0.9 | 2.6 | 0.00 | 0.03 | 0.00 | 67 | 1014.0 |
| 20260506082305 | 46 | 350 | 0.0 | 0.9 | 0.00 | 0.03 | 0.00 | 67 | 1014.0 |
| 20260506081804 | 46 | 350 | 0.0 | 0.9 | 0.00 | 0.03 | 0.00 | 67 | 1014.0 |
| 20260506081303 | 46 | 350 | 0.0 | 0.9 | 0.00 | 0.03 | 0.00 | 67 | 1014.0 |
| 20260506080804 | 47 | 350 | 0.0 | 0.0 | 0.00 | 0.03 | 0.00 | 68 | 1013.9 |
| 20260506080304 | 47 | 350 | 0.0 | 0.9 | 0.00 | 0.03 | 0.00 | 68 | 1014.1 |
| 20260506073304 | 48 | 350 | 0.0 | 0.0 | 0.00 | 0.03 | 0.00 | 65 | 1014.2 |
| 20260506072803 | 48 | 350 | 0.0 | 1.7 | 0.00 | 0.03 | 0.00 | 65 | 1014.4 |
| 20260506072305 | 48 | 10 | 0.0 | 0.9 | 0.00 | 0.03 | 0.00 | 65 | 1014.6 |
| 20260506071804 | 49 | 9 | 0.0 | 0.0 | 0.00 | 0.03 | 0.00 | 65 | 1014.4 |
| 20260506071304 | 49 | 9 | 0.0 | 0.0 | 0.00 | 0.03 | 0.00 | 64 | 1014.4 |
| 20260506070803 | 49 | 9 | 0.0 | 0.9 | 0.00 | 0.03 | 0.00 | 65 | 1014.5 |
| 20260506070304 | 49 | 9 | 0.0 | 0.0 | 0.00 | 0.03 | 0.00 | 65 | 1014.5 |
| 20260506062305 | 49 | 9 | 0.9 | 1.7 | 0.00 | 0.03 | 0.00 | 67 | 1014.1 |
| 20260506061804 | 49 | 2 | 0.0 | 1.7 | 0.00 | 0.03 | 0.00 | 67 | 1014.0 |
| 20260506061304 | 49 | 0 | 0.0 | 1.7 | 0.00 | 0.03 | 0.00 | 67 | 1013.9 |
| 20260506060809 | 49 | 0 | 0.9 | 2.6 | 0.00 | 0.03 | 0.00 | 67 | 1013.7 |
| 20260506060304 | 50 | 0 | 0.9 | 2.6 | 0.00 | 0.03 | 0.00 | 66 | 1013.7 |
| 20260506051304 | 51 | 351 | 0.0 | 0.0 | 0.00 | 0.03 | 0.03 | 63 | 1013.9 |
| 20260506050803 | 51 | 334 | 0.0 | 0.9 | 0.00 | 0.03 | 0.03 | 63 | 1013.8 |
| 20260506044803 | 52 | 346 | 0.0 | 5.2 | 0.00 | 0.03 | 0.03 | 62 | 1013.9 |
| 20260506044304 | 52 | 354 | 0.9 | 5.2 | 0.00 | 0.03 | 0.03 | 62 | 1013.7 |
| 20260506043804 | 52 | 341 | 0.9 | 7.0 | 0.00 | 0.03 | 0.03 | 62 | 1013.6 |
| 20260506043304 | 52 | 349 | 3.5 | 8.7 | 0.00 | 0.03 | 0.03 | 62 | 1013.6 |
| 20260506042804 | 52 | 346 | 2.6 | 7.0 | 0.00 | 0.03 | 0.03 | 62 | 1013.5 |
| 20260506042305 | 52 | 355 | 4.3 | 8.7 | 0.00 | 0.03 | 0.03 | 62 | 1013.5 |
| 20260506041803 | 52 | 355 | 2.6 | 7.0 | 0.00 | 0.03 | 0.03 | 62 | 1013.5 |
| 20260506041303 | 53 | 353 | 4.3 | 7.8 | 0.00 | 0.03 | 0.03 | 61 | 1013.4 |
| 20260506040803 | 53 | 337 | 2.6 | 8.7 | 0.00 | 0.03 | 0.03 | 61 | 1013.3 |
| 20260506040303 | 53 | 354 | 4.3 | 7.8 | 0.00 | 0.03 | 0.03 | 60 | 1013.2 |
| 20260506035804 | 53 | 342 | 2.6 | 7.8 | 0.00 | 0.03 | 0.03 | 59 | 1013.1 |
| 20260506035306 | 53 | 330 | 4.3 | 10.4 | 0.00 | 0.03 | 0.03 | 59 | 1013.0 |
| 20260506034804 | 53 | 350 | 2.6 | 10.4 | 0.00 | 0.03 | 0.03 | 59 | 1013.0 |
| 20260506034303 | 53 | 353 | 4.3 | 10.4 | 0.00 | 0.03 | 0.03 | 60 | 1013.0 |
| 20260506033803 | 53 | 344 | 5.2 | 10.4 | 0.00 | 0.03 | 0.03 | 60 | 1012.9 |
| 20260506033303 | 53 | 336 | 4.3 | 8.7 | 0.00 | 0.03 | 0.03 | 61 | 1012.9 |
| 20260506032803 | 53 | 336 | 2.6 | 7.0 | 0.00 | 0.03 | 0.03 | 61 | 1013.0 |
| 20260506032305 | 53 | 328 | 2.6 | 8.7 | 0.00 | 0.03 | 0.03 | 61 | 1012.7 |
| 20260506031803 | 53 | 319 | 3.5 | 8.7 | 0.00 | 0.03 | 0.03 | 61 | 1012.6 |
| 20260506031304 | 53 | 357 | 7.8 | 13.9 | 0.00 | 0.03 | 0.03 | 61 | 1012.4 |
| 20260506030804 | 53 | 350 | 6.1 | 11.3 | 0.00 | 0.03 | 0.03 | 61 | 1012.2 |
| 20260506025803 | 53 | 358 | 6.1 | 11.3 | 0.00 | 0.03 | 0.03 | 60 | 1012.3 |
| 20260506024804 | 54 | 356 | 7.8 | 13.0 | 0.00 | 0.03 | 0.03 | 59 | 1012.1 |
| 20260506024303 | 54 | 359 | 7.8 | 12.2 | 0.00 | 0.03 | 0.03 | 58 | 1012.0 |
| 20260506023304 | 55 | 357 | 7.0 | 15.6 | 0.00 | 0.03 | 0.03 | 56 | 1011.6 |
| 20260506021304 | 57 | 355 | 3.5 | 10.4 | 0.00 | 0.03 | 0.03 | 54 | 1011.2 |
| 20260506020303 | 58 | 292 | 0.0 | 2.6 | 0.00 | 0.03 | 0.03 | 56 | 1010.6 |
| 20260506015803 | 58 | 292 | 0.9 | 2.6 | 0.00 | 0.03 | 0.03 | 55 | 1010.6 |
| 20260506015306 | 58 | 292 | 0.9 | 2.6 | 0.00 | 0.03 | 0.03 | 55 | 1010.3 |
| 20260506014304 | 59 | 292 | 1.7 | 6.1 | 0.00 | 0.03 | 0.03 | 54 | 1010.2 |
| 20260506013803 | 59 | 292 | 1.7 | 4.3 | 0.00 | 0.03 | 0.03 | 54 | 1010.2 |
| 20260506013304 | 59 | 292 | 1.7 | 6.1 | 0.01 | 0.03 | 0.03 | 53 | 1010.2 |
| 20260506012804 | 59 | 292 | 0.0 | 2.6 | 0.01 | 0.03 | 0.03 | 53 | 1009.9 |
| 20260506012307 | 59 | 292 | 0.9 | 2.6 | 0.01 | 0.03 | 0.03 | 52 | 1009.9 |
| 20260506011303 | 59 | 292 | 0.9 | 4.3 | 0.01 | 0.03 | 0.03 | 51 | 1010.1 |
| 20260506010303 | 60 | 292 | 0.9 | 6.1 | 0.01 | 0.03 | 0.03 | 51 | 1009.9 |
| 20260506005804 | 60 | 292 | 3.5 | 7.8 | 0.01 | 0.03 | 0.03 | 50 | 1009.7 |
| 20260506005305 | 61 | 294 | 1.7 | 7.8 | 0.01 | 0.03 | 0.03 | 51 | 1009.8 |
| 20260506004803 | 61 | 297 | 2.6 | 10.4 | 0.01 | 0.03 | 0.03 | 51 | 1009.5 |
| 20260506004303 | 61 | 293 | 3.5 | 7.8 | 0.01 | 0.03 | 0.03 | 53 | 1009.6 |
| 20260506003803 | 62 | 298 | 2.6 | 10.4 | 0.01 | 0.03 | 0.03 | 51 | 1009.8 |
| 20260506003304 | 62 | 303 | 2.6 | 10.4 | 0.00 | 0.02 | 0.02 | 52 | 1010.2 |
| 20260506002305 | 62 | 342 | 4.3 | 8.7 | 0.00 | 0.02 | 0.02 | 43 | 1009.6 |
| 20260506001803 | 63 | 321 | 1.7 | 7.0 | 0.00 | 0.02 | 0.02 | 43 | 1009.6 |
| 20260506001303 | 63 | 324 | 1.7 | 5.2 | 0.00 | 0.02 | 0.02 | 42 | 1009.6 |
| 20260506000303 | 63 | 338 | 0.9 | 4.3 | 0.00 | 0.02 | 0.02 | 42 | 1009.3 |
| 20260505235803 | 64 | 347 | 0.0 | 2.6 | 0.00 | 0.02 | 0.02 | 43 | 1009.8 |
| 20260505235305 | 64 | 333 | 0.0 | 1.7 | 0.00 | 0.02 | 0.02 | 43 | 1009.8 |
| 20260505234803 | 64 | 334 | 0.9 | 5.2 | 0.00 | 0.02 | 0.02 | 43 | 1009.9 |
| 20260505234304 | 64 | 336 | 1.7 | 13.0 | 0.00 | 0.02 | 0.02 | 43 | 1009.8 |
| 20260505233805 | 64 | 333 | 1.7 | 5.2 | 0.00 | 0.02 | 0.02 | 44 | 1009.8 |
| 20260505233304 | 64 | 345 | 1.7 | 10.4 | 0.00 | 0.02 | 0.02 | 45 | 1009.8 |
| 20260505232804 | 64 | 301 | 1.7 | 6.1 | 0.00 | 0.02 | 0.02 | 44 | 1009.8 |
| 20260505231805 | 63 | 354 | 1.7 | 7.0 | 0.00 | 0.02 | 0.02 | 44 | 1009.7 |
| 20260505231305 | 63 | 327 | 0.0 | 5.2 | 0.00 | 0.02 | 0.02 | 45 | 1010.0 |
| 20260505230804 | 63 | 327 | 0.9 | 7.0 | 0.00 | 0.02 | 0.02 | 45 | 1010.0 |
| 20260505230304 | 63 | 327 | 0.9 | 5.2 | 0.00 | 0.02 | 0.02 | 45 | 1010.1 |
| 20260505225804 | 63 | 327 | 1.7 | 7.8 | 0.00 | 0.02 | 0.02 | 46 | 1010.2 |
| 20260505225306 | 63 | 328 | 1.7 | 7.0 | 0.00 | 0.02 | 0.02 | 47 | 1010.2 |
| 20260505224805 | 62 | 347 | 0.9 | 5.2 | 0.00 | 0.02 | 0.02 | 47 | 1010.1 |
| 20260505223805 | 62 | 320 | 0.9 | 2.6 | 0.00 | 0.02 | 0.02 | 49 | 1010.1 |
| 20260505222805 | 61 | 295 | 0.9 | 6.1 | 0.01 | 0.02 | 0.02 | 50 | 1010.2 |
| 20260505222306 | 61 | 295 | 0.9 | 2.6 | 0.01 | 0.02 | 0.02 | 50 | 1010.4 |
| 20260505221805 | 61 | 295 | 1.7 | 6.1 | 0.01 | 0.02 | 0.02 | 50 | 1010.5 |
| 20260505221304 | 61 | 296 | 4.3 | 8.7 | 0.01 | 0.02 | 0.02 | 52 | 1010.5 |
| 20260505220804 | 60 | 277 | 2.6 | 10.4 | 0.01 | 0.02 | 0.02 | 53 | 1010.6 |
| 20260505220304 | 60 | 281 | 5.2 | 10.4 | 0.01 | 0.02 | 0.02 | 54 | 1010.5 |
| 20260505215805 | 60 | 290 | 0.9 | 7.0 | 0.01 | 0.02 | 0.02 | 56 | 1011.0 |
| 20260505214804 | 61 | 277 | 3.5 | 13.0 | 0.01 | 0.02 | 0.02 | 60 | 1011.6 |
| 20260505214304 | 61 | 312 | 7.8 | 18.2 | 0.01 | 0.02 | 0.02 | 59 | 1012.0 |
| 20260505213804 | 62 | 335 | 9.6 | 17.4 | 0.01 | 0.02 | 0.02 | 54 | 1012.1 |
| 20260505212805 | 64 | 349 | 7.8 | 15.6 | 0.00 | 0.01 | 0.01 | 47 | 1011.5 |
| 20260505211804 | 64 | 302 | 1.7 | 7.0 | 0.00 | 0.01 | 0.01 | 43 | 1011.1 |
| 20260505211305 | 65 | 302 | 1.7 | 7.0 | 0.00 | 0.01 | 0.01 | 41 | 1011.0 |
| 20260505210804 | 65 | 340 | 0.0 | 2.6 | 0.00 | 0.01 | 0.01 | 41 | 1010.8 |
| 20260505205805 | 65 | 11 | 0.9 | 6.1 | 0.00 | 0.01 | 0.01 | 41 | 1011.4 |
| 20260505205305 | 65 | 74 | 0.0 | 1.7 | 0.00 | 0.01 | 0.01 | 41 | 1011.3 |
| 20260505204804 | 66 | 60 | 0.9 | 4.3 | 0.00 | 0.01 | 0.01 | 40 | 1011.3 |
| 20260505204304 | 66 | 6 | 3.5 | 7.8 | 0.00 | 0.01 | 0.01 | 40 | 1011.4 |
| 20260505203804 | 67 | 6 | 0.0 | 7.0 | 0.00 | 0.01 | 0.01 | 39 | 1011.4 |
| 20260505203305 | 67 | 346 | 2.6 | 5.2 | 0.00 | 0.01 | 0.01 | 39 | 1011.6 |
| 20260505202804 | 67 | 334 | 1.7 | 4.3 | 0.00 | 0.01 | 0.01 | 39 | 1011.7 |
| 20260505202306 | 67 | 50 | 0.9 | 4.3 | 0.00 | 0.01 | 0.01 | 41 | 1011.7 |
| 20260505201804 | 66 | 347 | 2.6 | 7.8 | 0.00 | 0.01 | 0.01 | 42 | 1011.5 |
| 20260505201304 | 66 | 13 | 1.7 | 5.2 | 0.00 | 0.01 | 0.01 | 43 | 1011.6 |
| 20260505200804 | 65 | 348 | 0.0 | 5.2 | 0.00 | 0.01 | 0.01 | 47 | 1011.5 |
| 20260505200304 | 64 | 330 | 0.9 | 4.3 | 0.00 | 0.01 | 0.01 | 47 | 1011.6 |
| 20260505195804 | 63 | 312 | 2.6 | 10.4 | 0.00 | 0.01 | 0.01 | 48 | 1011.6 |
| 20260505195305 | 62 | 289 | 2.6 | 7.0 | 0.00 | 0.01 | 0.01 | 49 | 1011.7 |
| 20260505194804 | 62 | 294 | 2.6 | 8.7 | 0.00 | 0.01 | 0.01 | 50 | 1011.8 |
| 20260505194304 | 61 | 296 | 3.5 | 10.4 | 0.00 | 0.01 | 0.01 | 53 | 1012.0 |
| 20260505193804 | 61 | 334 | 2.6 | 10.4 | 0.00 | 0.01 | 0.01 | 52 | 1012.1 |
| 20260505193304 | 61 | 317 | 2.6 | 10.4 | 0.00 | 0.01 | 0.01 | 52 | 1012.1 |
| 20260505192804 | 60 | 287 | 6.1 | 10.4 | 0.00 | 0.01 | 0.01 | 53 | 1012.1 |
| 20260505192305 | 60 | 299 | 2.6 | 10.4 | 0.01 | 0.01 | 0.01 | 56 | 1012.1 |
| 20260505191304 | 59 | 287 | 0.9 | 7.0 | 0.01 | 0.01 | 0.01 | 57 | 1012.1 |
| 20260505190804 | 59 | 294 | 3.5 | 10.4 | 0.01 | 0.01 | 0.01 | 59 | 1012.2 |
| 20260505190304 | 58 | 278 | 0.9 | 2.6 | 0.01 | 0.01 | 0.01 | 60 | 1012.3 |
| 20260505185804 | 58 | 237 | 1.7 | 7.8 | 0.01 | 0.01 | 0.01 | 61 | 1012.5 |
| 20260505185305 | 58 | 237 | 0.9 | 4.3 | 0.01 | 0.01 | 0.01 | 64 | 1012.7 |
| 20260505184804 | 57 | 237 | 2.6 | 6.1 | 0.01 | 0.01 | 0.01 | 67 | 1012.7 |
| 20260505184304 | 57 | 215 | 2.6 | 5.2 | 0.01 | 0.01 | 0.01 | 65 | 1012.8 |
| 20260505183804 | 57 | 215 | 4.3 | 7.8 | 0.01 | 0.01 | 0.01 | 64 | 1013.0 |
| 20260505183304 | 57 | 215 | 4.3 | 7.8 | 0.01 | 0.01 | 0.01 | 64 | 1012.9 |
| 20260505182805 | 58 | 215 | 2.6 | 7.8 | 0.01 | 0.01 | 0.01 | 63 | 1013.0 |
| 20260505182306 | 59 | 200 | 4.3 | 10.4 | 0.00 | 0.00 | 0.00 | 57 | 1012.6 |
| 20260505181804 | 60 | 203 | 4.3 | 8.7 | 0.00 | 0.00 | 0.00 | 50 | 1012.7 |
| 20260505181304 | 61 | 188 | 3.5 | 7.8 | 0.00 | 0.00 | 0.00 | 45 | 1012.6 |
| 20260505180304 | 61 | 175 | 2.6 | 6.1 | 0.00 | 0.00 | 0.00 | 43 | 1012.5 |
| 20260505175305 | 62 | 178 | 0.9 | 2.6 | 0.00 | 0.00 | 0.00 | 42 | 1012.4 |
| 20260505174804 | 62 | 178 | 1.7 | 5.2 | 0.00 | 0.00 | 0.00 | 43 | 1012.5 |
| 20260505174305 | 62 | 169 | 0.0 | 0.9 | 0.00 | 0.00 | 0.00 | 43 | 1012.4 |
| 20260505173804 | 61 | 133 | 1.7 | 2.6 | 0.00 | 0.00 | 0.00 | 44 | 1012.4 |
| 20260505173305 | 61 | 61 | 3.5 | 6.1 | 0.00 | 0.00 | 0.00 | 44 | 1012.2 |
| 20260505172804 | 60 | 39 | 5.2 | 8.7 | 0.00 | 0.00 | 0.00 | 45 | 1012.2 |
| 20260505172306 | 60 | 90 | 0.9 | 2.6 | 0.00 | 0.00 | 0.00 | 45 | 1012.2 |
| 20260505171304 | 59 | 353 | 2.6 | 5.2 | 0.00 | 0.00 | 0.00 | 46 | 1012.1 |
| 20260505170804 | 58 | 344 | 0.9 | 5.2 | 0.00 | 0.00 | 0.00 | 47 | 1012.2 |
| 20260505170304 | 58 | 347 | 4.3 | 7.8 | 0.00 | 0.00 | 0.00 | 47 | 1012.2 |
| 20260505165804 | 58 | 7 | 2.6 | 7.8 | 0.00 | 0.00 | 0.00 | 47 | 1012.6 |
| 20260505165306 | 58 | 4 | 3.5 | 7.8 | 0.00 | 0.00 | 0.00 | 48 | 1012.7 |
| 20260505164804 | 57 | 7 | 2.6 | 7.8 | 0.00 | 0.00 | 0.00 | 49 | 1012.6 |
| 20260505164304 | 57 | 349 | 3.5 | 7.8 | 0.00 | 0.00 | 0.00 | 51 | 1012.5 |
| 20260505163804 | 56 | 14 | 0.9 | 7.8 | 0.00 | 0.00 | 0.00 | 54 | 1012.4 |
| 20260505163304 | 56 | 349 | 5.2 | 10.4 | 0.00 | 0.00 | 0.00 | 53 | 1012.4 |
| 20260505162804 | 55 | 348 | 5.2 | 10.4 | 0.00 | 0.00 | 0.00 | 53 | 1012.5 |
| 20260505162306 | 55 | 349 | 7.8 | 10.4 | 0.00 | 0.00 | 0.00 | 54 | 1012.6 |
| 20260505161804 | 55 | 356 | 6.1 | 10.4 | 0.00 | 0.00 | 0.00 | 57 | 1012.5 |
| 20260505161304 | 54 | 346 | 5.2 | 10.4 | 0.00 | 0.00 | 0.00 | 59 | 1012.6 |
| 20260505160804 | 54 | 347 | 5.2 | 11.3 | 0.00 | 0.00 | 0.00 | 58 | 1012.7 |
| 20260505152804 | 55 | 344 | 2.6 | 11.3 | 0.00 | 0.00 | 0.00 | 62 | 1013.1 |
| 20260505151804 | 55 | 333 | 3.5 | 8.7 | 0.00 | 0.00 | 0.00 | 63 | 1013.3 |
| 20260505150804 | 55 | 340 | 6.1 | 12.2 | 0.00 | 0.00 | 0.00 | 62 | 1013.3 |
| 20260505150304 | 54 | 353 | 5.2 | 10.4 | 0.00 | 0.00 | 0.00 | 62 | 1013.3 |
| 20260505140304 | 58 | 300 | 0.0 | 0.9 | 0.00 | 0.00 | 0.00 | 46 | 1013.1 |
| 20260505130303 | 58 | 300 | 1.7 | 7.0 | 0.00 | 0.00 | 0.00 | 41 | 1012.6 |
| 20260505124804 | 58 | 300 | 0.9 | 6.1 | 0.00 | 0.00 | 0.00 | 41 | 1012.2 |
| 20260505124304 | 58 | 300 | 0.9 | 4.3 | 0.00 | 0.00 | 0.00 | 41 | 1012.0 |
| 20260505123804 | 58 | 286 | 0.0 | 5.2 | 0.00 | 0.00 | 0.00 | 40 | 1012.0 |
| 20260505123304 | 58 | 286 | 0.9 | 8.7 | 0.00 | 0.00 | 0.00 | 40 | 1012.0 |
| 20260505122804 | 58 | 290 | 4.3 | 7.8 | 0.00 | 0.00 | 0.00 | 39 | 1012.1 |
| 20260505122305 | 58 | 290 | 2.6 | 7.0 | 0.00 | 0.00 | 0.00 | 39 | 1012.1 |
| 20260505121804 | 58 | 290 | 2.6 | 7.8 | 0.00 | 0.00 | 0.00 | 41 | 1012.0 |
| 20260505121303 | 58 | 298 | 4.3 | 8.7 | 0.00 | 0.00 | 0.00 | 41 | 1012.0 |
| 20260505120804 | 58 | 280 | 5.2 | 8.7 | 0.00 | 0.00 | 0.00 | 40 | 1012.1 |
| 20260505120304 | 59 | 288 | 6.1 | 10.4 | 0.00 | 0.00 | 0.00 | 40 | 1012.1 |
| 20260505115804 | 59 | 295 | 4.3 | 7.0 | 0.00 | 0.00 | 0.00 | 39 | 1012.0 |
| 20260505115305 | 59 | 295 | 1.7 | 7.0 | 0.00 | 0.00 | 0.00 | 39 | 1012.0 |
| 20260505114804 | 59 | 293 | 2.6 | 6.1 | 0.00 | 0.00 | 0.00 | 40 | 1012.0 |
| 20260505114303 | 59 | 292 | 1.7 | 4.3 | 0.00 | 0.00 | 0.00 | 41 | 1012.0 |